Date,TemperatureHighF,TemperatureAvgF,TemperatureLowF,DewpointHighF,DewpointAvgF,DewpointLowF,HumidityHigh,HumidityAvg,HumidityLow,PressureMaxIn,PressureMinIn,WindSpeedMaxMPH,WindSpeedAvgMPH,GustSpeedMaxMPH,PrecipitationSumIn
2012-9-15,82.4,80.1,75.4,60.6,55.0,51.3,58,42,36,29.36,29.27,8,1,8,0.00
2012-9-16,86.0,74.9,60.3,66.2,61.5,56.6,97,66,38,29.30,29.18,7,1,8,0.00
2012-9-17,73.4,67.1,64.0,69.2,65.8,63.2,98,96,81,29.24,28.94,12,1,12,2.24
2012-9-18,73.2,64.8,51.4,68.0,62.4,50.9,98,92,71,29.18,28.88,14,1,14,2.80
2012-9-19,70.3,57.2,44.6,54.8,47.6,42.0,98,75,44,29.30,29.18,11,1,13,0.00
2012-9-20,78.6,66.9,51.4,61.1,55.4,46.4,98,70,42,29.30,0.00,13,2,14,0.00
2012-9-21,81.1,64.9,52.0,64.0,55.3,47.4,98,76,33,29.27,29.12,10,1,10,0.00
2012-9-22,84.4,67.2,51.3,62.7,55.8,45.7,98,71,41,29.27,29.12,14,2,14,0.00
2012-9-23,72.9,56.9,44.4,53.6,42.7,30.9,98,66,28,29.39,29.27,8,1,8,0.00
2012-9-24,70.0,52.9,38.1,48.4,41.2,37.1,98,71,33,29.42,29.30,11,1,11,0.00
2012-9-25,58.5,45.0,43.0,52.7,44.2,42.5,98,97,71,29.39,29.33,0,0,0,0.00
2012-9-26,81.9,72.2,57.7,62.2,57.1,52.6,98,63,40,29.39,29.30,11,2,11,0.00
2012-9-27,86.4,66.2,52.0,64.3,57.6,51.4,98,78,38,29.39,29.27,11,1,11,0.00
2012-9-28,84.4,67.9,57.0,65.9,60.7,56.5,98,81,42,29.30,29.18,11,1,11,0.04
2012-9-29,79.7,66.2,54.5,67.7,61.6,53.9,98,87,54,29.21,29.06,8,0,8,0.20
2012-9-30,72.3,60.0,50.2,61.4,56.4,49.6,98,89,52,29.12,28.97,5,0,5,0.00
2012-10-1,72.5,63.5,57.2,68.1,61.8,56.6,98,94,79,28.97,28.77,16,2,16,0.71
2012-10-2,70.5,66.1,59.7,67.5,61.6,56.5,98,86,64,29.15,28.80,14,3,14,0.04
2012-10-3,73.8,62.8,54.3,61.8,57.0,49.8,98,84,45,29.36,29.15,7,1,8,0.00
2012-10-4,77.4,60.9,51.4,60.3,54.4,50.9,98,82,44,29.47,29.36,9,1,9,0.00
2012-10-5,78.1,61.8,50.4,59.9,54.8,49.8,98,82,42,29.42,29.18,8,1,8,0.00
2012-10-6,64.8,56.1,50.9,63.5,53.5,47.9,98,91,77,29.27,29.15,8,0,9,0.08
2012-10-7,56.7,49.3,41.7,49.6,43.6,35.0,98,83,48,29.33,29.21,10,0,10,0.20
2012-10-8,50.2,46.8,43.0,47.8,45.3,42.5,98,94,87,29.39,29.27,9,0,9,0.28
2012-10-9,62.2,50.9,43.7,49.7,46.2,43.0,98,86,54,29.33,29.21,7,0,7,0.00
2012-10-10,67.1,51.1,39.7,54.1,47.5,39.2,98,89,58,29.39,29.24,8,0,8,0.00
2012-10-11,68.4,51.8,36.1,53.2,43.4,35.6,98,78,35,29.47,29.39,8,1,8,0.00
2012-10-12,62.6,57.7,53.6,59.3,55.8,52.5,98,94,83,29.47,29.39,12,0,12,0.47
2012-10-13,75.0,59.9,49.8,60.1,52.7,49.3,98,81,44,29.50,29.36,13,2,15,0.00
2012-10-14,73.4,61.1,48.9,59.6,55.3,48.2,98,83,60,29.39,29.12,17,3,18,0.00
2012-10-15,71.1,60.5,45.3,61.5,51.6,39.2,98,77,37,29.15,29.09,14,1,14,0.94
2012-10-16,67.8,51.4,40.3,52.9,43.8,38.1,98,80,36,29.21,29.03,9,0,9,0.00
2012-10-17,72.7,56.6,42.6,50.2,44.6,39.9,98,69,33,29.12,28.91,18,2,18,0.00
2012-10-18,66.9,57.7,42.4,58.6,50.0,41.2,98,77,46,29.00,28.91,17,3,17,0.12
2012-10-19,68.0,52.9,38.1,46.0,38.0,32.2,98,64,30,29.00,28.88,17,3,17,0.00
2012-10-20,66.0,51.8,39.2,47.5,40.9,35.3,98,70,40,29.18,28.97,10,0,10,0.00
2012-10-21,68.5,50.5,37.0,48.4,42.5,36.5,98,79,39,29.33,29.18,7,1,7,0.00
2012-10-22,74.1,55.0,41.4,52.3,46.4,40.8,98,78,36,29.42,29.30,7,0,7,0.00
2012-10-23,76.1,57.1,44.2,54.4,47.8,43.1,98,77,34,29.36,29.27,10,1,10,0.00
2012-10-24,75.9,56.2,40.6,53.5,48.1,40.1,98,79,39,29.39,29.24,8,0,8,0.00
2012-10-25,77.4,57.7,43.7,58.7,50.6,43.2,98,81,45,29.30,29.18,9,0,9,0.00
2012-10-26,77.4,61.1,49.6,59.5,53.8,49.1,98,81,42,29.24,29.09,7,0,7,0.00
2012-10-27,56.7,51.4,47.5,56.1,46.8,42.1,98,84,73,29.15,29.09,11,1,12,0.00
2012-10-28,48.6,46.1,43.3,45.1,40.7,34.7,97,82,71,29.15,29.03,9,2,10,0.08
2012-10-29,51.6,44.5,37.6,35.1,28.5,19.6,73,54,40,29.15,28.97,10,2,11,0.00
2012-10-30,55.0,45.2,37.2,29.2,24.6,21.0,60,45,36,28.97,28.85,13,2,13,0.00
2012-10-31,59.2,42.9,26.6,31.9,24.4,19.0,93,52,27,29.09,28.97,12,1,12,0.00
2012-11-1,58.8,39.4,24.1,34.0,25.6,18.5,98,66,26,29.18,29.09,10,1,10,0.00
2012-11-2,70.2,49.5,33.1,42.8,34.4,28.3,88,60,34,29.21,29.06,11,1,11,0.00
2012-11-3,70.0,50.2,31.6,50.9,38.6,31.1,98,70,35,29.30,29.12,9,1,10,0.00
2012-11-4,62.8,53.0,33.6,53.9,43.8,33.1,98,73,42,29.27,29.12,10,1,10,0.00
2012-11-5,57.4,42.3,28.9,40.3,31.7,26.9,98,71,35,29.30,29.12,11,1,11,0.00
2012-11-6,56.3,45.6,40.6,44.4,40.2,30.5,98,83,48,29.18,29.09,10,1,10,0.43
2012-11-7,45.9,43.3,38.1,44.6,42.5,37.4,98,97,92,29.24,29.06,7,0,7,0.31
2012-11-8,55.8,40.1,29.7,42.1,33.1,28.1,98,81,38,29.39,29.24,8,0,8,0.00
2012-11-9,61.7,40.6,27.5,42.5,32.8,27.0,98,79,35,29.47,29.36,7,0,7,0.00
2012-11-10,67.1,44.5,29.8,42.9,35.3,29.3,98,77,33,29.53,29.39,10,1,10,0.00
2012-11-11,68.5,49.5,30.0,47.7,39.7,29.5,98,73,38,29.56,29.39,17,2,17,0.00
2012-11-12,63.5,54.4,32.0,58.3,48.6,31.4,98,82,63,29.56,29.30,20,4,20,0.51
2012-11-13,48.6,35.7,25.9,33.5,25.5,20.5,98,71,37,29.59,29.50,15,1,15,0.00
2012-11-14,52.9,37.9,25.3,36.3,28.8,23.9,98,73,41,29.56,29.44,9,0,9,0.00
2012-11-15,57.0,41.8,30.9,37.8,33.1,29.3,98,76,39,29.47,29.39,8,0,8,0.00
2012-11-16,56.8,38.5,25.9,38.1,28.9,23.0,98,74,33,29.50,29.42,9,1,9,0.00
2012-11-17,58.8,39.3,25.7,36.9,29.3,24.8,98,74,34,29.62,29.50,8,1,8,0.00
2012-11-18,59.9,39.3,25.7,38.4,29.1,25.2,98,74,32,29.59,29.47,8,0,8,0.00
2012-11-19,62.4,40.9,25.5,39.9,31.5,25.0,98,75,35,29.50,29.36,7,0,7,0.00
2012-11-20,64.2,45.7,32.9,42.6,37.1,32.4,98,77,37,29.36,29.24,8,1,8,0.00
2012-11-21,65.7,48.2,35.2,45.0,39.2,34.7,98,76,37,29.36,29.27,8,0,9,0.00
2012-11-22,64.8,44.0,30.4,45.3,36.2,29.9,98,79,37,29.42,29.33,10,1,10,0.00
2012-11-23,63.9,41.9,30.0,47.1,37.2,29.5,98,86,47,29.36,29.21,11,1,11,0.00
2012-11-24,45.0,32.4,22.1,31.7,21.2,14.2,98,67,39,29.39,29.30,11,1,11,0.00
2012-11-25,53.4,32.7,18.3,25.2,21.3,17.8,98,70,29,29.36,29.21,10,2,10,0.00
2012-11-26,62.8,44.5,24.1,45.1,29.3,22.6,98,62,27,29.36,29.24,10,2,10,0.04
2012-11-27,46.6,43.9,37.6,46.0,41.0,31.5,98,90,76,29.44,29.27,10,1,10,0.24
2012-11-28,46.8,36.0,25.0,33.5,28.7,22.3,98,77,41,29.62,29.44,8,1,8,0.00
2012-11-29,56.7,34.6,20.8,35.5,27.5,20.4,98,80,39,29.62,29.44,10,1,10,0.00
2012-11-30,59.4,38.7,24.1,42.8,33.7,23.6,98,85,51,29.53,29.39,11,1,11,0.00
2012-12-1,66.0,44.8,32.4,46.0,38.4,31.7,98,82,45,29.53,29.42,12,1,12,0.00
2012-12-2,67.6,48.5,33.6,53.9,41.4,33.1,98,80,45,29.50,29.39,14,2,14,0.00
2012-12-3,69.3,50.3,36.0,50.4,43.0,35.5,98,80,42,29.47,29.36,15,2,15,0.00
2012-12-4,70.5,55.9,41.5,55.6,47.1,41.0,98,76,43,29.44,29.33,15,2,15,0.00
2012-12-5,58.8,51.2,39.2,54.5,45.4,35.4,98,83,46,29.42,29.30,10,1,10,0.04
2012-12-6,55.9,47.3,38.5,43.2,40.4,37.1,98,78,54,29.33,29.24,5,0,5,0.00
2012-12-7,61.5,51.4,39.7,49.1,45.7,39.2,98,82,62,29.27,29.12,10,1,10,0.00
2012-12-8,66.9,56.3,47.1,56.5,51.2,45.5,98,84,59,29.18,29.09,13,2,15,0.00
2012-12-9,67.6,59.8,53.8,57.5,54.3,50.7,98,83,64,29.21,29.06,13,3,13,0.00
2012-12-10,63.0,54.3,38.1,56.7,50.5,31.1,98,88,68,29.09,28.83,18,4,18,0.91
2012-12-11,38.1,33.6,29.5,31.7,26.8,24.4,92,76,63,29.36,29.09,10,2,10,0.00
2012-12-12,46.2,34.6,26.2,28.8,24.8,20.4,93,69,41,29.44,29.36,14,1,14,0.00
2012-12-13,51.1,33.8,22.3,32.9,27.5,21.8,98,81,47,29.53,29.42,8,1,8,0.00
2012-12-14,54.3,34.8,23.0,39.2,29.5,22.3,98,84,44,29.53,29.36,7,1,7,0.00
2012-12-15,58.8,46.0,32.7,46.5,37.8,32.2,98,76,48,29.36,29.15,14,3,14,0.04
2012-12-16,55.9,52.0,48.4,55.2,50.7,45.6,98,95,84,29.18,28.97,14,3,14,1.18
2012-12-17,57.6,52.1,45.3,54.7,50.5,44.8,98,95,84,29.00,28.80,13,3,13,0.16
2012-12-18,54.5,44.0,32.4,50.2,35.8,28.0,98,77,39,29.15,28.85,9,1,9,0.00
2012-12-19,60.4,41.8,28.6,42.9,35.7,28.1,98,83,45,29.27,29.15,9,1,9,0.00
2012-12-20,52.5,43.1,35.6,50.7,37.7,21.8,98,83,50,29.18,28.77,19,4,19,0.98
2012-12-21,43.5,34.5,23.4,22.8,16.4,8.8,55,47,40,29.36,29.03,21,5,21,0.00
2012-12-22,43.7,27.4,16.5,23.2,16.0,9.2,98,66,36,29.50,29.36,7,1,7,0.00
2012-12-23,53.1,35.8,18.5,39.0,23.8,17.6,98,68,38,29.36,29.18,11,1,11,0.08
2012-12-24,52.9,46.8,39.9,51.6,45.9,37.3,98,97,86,29.18,29.00,13,2,13,0.59
2012-12-25,47.1,44.4,41.5,46.0,43.5,41.0,98,96,89,29.21,28.91,8,1,8,0.71
2012-12-26,53.1,41.4,32.0,50.5,35.4,23.3,98,80,63,29.18,28.56,22,6,22,0.43
2012-12-27,36.0,32.0,25.7,26.0,23.6,20.7,91,71,56,29.30,29.18,10,1,10,0.00
2012-12-28,39.9,33.2,25.0,37.2,29.4,23.0,98,87,62,29.30,28.94,14,1,14,0.24
2012-12-29,39.9,35.5,30.6,38.1,31.5,21.6,98,86,68,29.44,28.91,13,2,13,0.00
2012-12-30,38.7,29.1,21.7,23.3,17.5,13.1,98,63,43,29.65,29.44,11,2,11,0.00
2012-12-31,47.5,33.4,19.6,32.0,24.4,19.1,98,74,40,29.56,29.24,11,1,11,0.00
2013-1-1,49.1,43.7,38.7,48.6,41.6,30.3,98,93,63,29.27,29.12,8,1,9,1.10